Snowfall_Accumulation
0.4 0.3 2.6 1.7 0.5 0.4 2.7 0.4 2.1 0.0 0.0 0.0 0.0 0.0 0.0 0.0 0.0 0.0 0.0 0.0 0.0 0.0 0.0 0.0 0.0 0.0 0.0 0.0 0.0 0.0 0.0 0.0 0.0 0.0 0.0 0.0 0.0 0.0 0.0 0.0 0.0 0.0 0.0 0.0
2.7 0.7 1.6 1.9 0.2 0.2 0.2 0.0 0.0 0.0 0.0 0.0 0.0 0.0 0.0 0.0 0.0 0.0 0.0 0.0 0.0 0.0 0.0 0.0 0.0 0.0 0.0 0.0 0.0 0.0 0.0 0.0 0.0 0.0 0.0 0.0 0.0 0.0 0.0 0.0 0.0 0.0 0.0 0.0
5.0 0.2 0.7 1.7 0.2 0.1 0.0 0.0 0.0 0.1 0.0 0.0 0.0 0.0 0.0 0.0 0.0 0.0 0.0 0.0 0.0 0.0 0.0 0.0 0.0 0.0 0.0 0.0 0.0 0.0 0.0 0.0 0.0 0.0 0.0 0.0 0.0 0.0 0.0 0.0 0.0 0.0 0.0 0.0
9.3 2.1 6.5 0.0 0.0 0.0 0.0 0.1 0.2 0.1 0.0 0.0 0.0 0.0 0.0 0.0 0.0 0.0 0.0 0.0 0.0 0.0 0.0 0.0 0.0 0.0 0.0 0.0 0.0 0.0 0.0 0.0 0.0 0.0 0.0 0.0 0.0 0.0 0.0 0.0 0.0 0.0 0.0 0.2
6.4 2.4 0.0 0.0 0.0 0.0 0.0 0.3 0.0 0.1 0.0 0.0 0.0 0.0 0.0 0.0 0.0 0.0 0.0 0.0 0.0 0.0 0.0 0.0 0.0 0.0 0.0 0.0 0.0 0.0 0.0 0.0 0.0 0.0 0.0 0.0 0.0 0.0 0.0 0.0 1.1 3.5 2.7 3.6
4.3 6.5 2.3 0.0 0.0 0.0 0.0 0.6 0.0 0.0 0.0 0.0 0.0 0.0 0.0 0.0 0.0 0.0 0.0 0.0 0.0 0.0 0.0 0.0 0.0 0.0 0.0 0.2 0.4 0.8 1.0 1.0 0.5 0.0 1.0 2.7 2.4 4.9 2.5 1.7 4.9 3.8 4.7 4.2
3.1 5.6 0.0 0.0 0.0 0.0 0.2 0.4 0.0 0.0 0.0 0.0 0.0 0.0 0.0 0.0 0.0 0.0 0.0 0.0 0.0 0.0 0.0 0.0 0.0 0.0 0.1 0.8 2.9 0.8 0.1 0.3 0.6 0.7 1.0 2.2 3.9 3.6 2.2 2.6 3.4 3.6 3.7 2.5
3.2 8.5 2.2 0.0 0.0 0.1 0.0 0.0 0.0 0.0 0.0 0.0 0.0 0.0 0.0 0.0 0.0 0.0 0.0 0.0 0.0 0.0 0.0 0.0 0.0 0.0 0.0 0.0 0.2 0.3 0.0 0.0 0.5 0.9 0.7 1.1 1.2 2.0 1.9 0.8 3.0 2.7 2.4 2.4
2.8 0.9 0.0 0.0 0.0 0.0 0.0 0.0 0.0 0.0 0.0 0.0 0.0 0.0 0.0 0.0 0.0 0.0 0.0 0.0 0.0 0.0 0.0 0.0 0.0 0.0 0.0 0.0 0.0 0.0 0.0 0.0 0.4 0.5 0.0 0.0 0.6 1.0 2.0 2.2 3.6 3.2 2.3 2.1
1.8 0.0 0.0 0.0 0.0 0.0 0.0 0.0 0.0 0.0 0.0 0.0 0.0 0.0 0.0 0.0 0.0 0.0 0.0 0.0 0.0 0.0 0.0 0.0 0.0 0.0 0.1 0.0 0.0 0.4 1.5 1.4 0.7 0.5 0.8 0.6 0.6 1.4 3.1 3.8 4.6 2.5 2.3 2.7
0.0 0.0 0.0 0.0 0.0 0.0 0.0 0.0 0.0 0.0 0.0 0.0 0.0 0.0 0.0 0.0 0.0 0.0 0.0 0.0 0.0 0.0 0.0 0.0 0.0 0.0 0.0 0.0 0.2 0.5 1.0 1.7 2.4 2.0 2.5 3.1 2.7 4.3 6.5 2.9 5.4 10.7 7.2 6.1
0.1 0.0 0.2 0.0 0.0 0.0 0.0 0.2 0.1 0.0 0.0 0.2 0.1 0.0 0.1 0.0 0.0 0.0 0.0 0.0 0.0 0.0 0.0 0.0 0.0 0.0 0.0 0.0 0.3 0.7 1.2 1.3 2.4 3.9 3.4 4.0 5.4 6.4 0.8 2.2 0.9 0.8 1.6 4.5
0.2 0.0 0.0 0.0 0.1 0.0 0.7 0.4 0.2 0.1 0.8 0.4 0.1 0.5 0.4 0.1 0.0 0.0 0.1 0.0 0.1 0.0 0.0 0.0 0.0 0.1 0.0 0.1 0.4 0.7 1.6 2.0 2.8 3.0 3.8 4.6 5.8 5.4 6.3 2.7 0.4 0.9 1.1 1.2
0.0 0.0 1.0 0.3 0.2 1.1 0.6 0.3 1.6 1.4 0.8 0.3 0.0 0.5 0.2 0.0 0.0 0.0 0.2 0.1 0.0 0.2 0.1 0.0 0.2 0.1 0.1 0.3 0.4 0.3 1.2 1.3 2.8 2.8 3.9 5.2 5.8 5.5 5.2 5.7 6.2 5.2 0.3 0.9
1.8 1.2 2.5 2.4 2.7 2.7 0.8 2.1 1.8 1.9 1.7 2.0 1.8 1.4 0.9 1.6 1.3 0.9 0.8 0.7 0.5 0.3 0.1 0.2 0.2 0.0 0.0 0.3 0.9 0.6 1.0 2.1 3.0 3.2 2.6 4.3 5.7 5.4 5.6 5.9 5.8 5.7 4.8 1.9
4.1 3.4 2.3 2.3 3.2 3.5 2.6 2.2 3.5 5.7 4.8 5.1 4.5 3.8 2.8 2.2 2.0 1.8 1.4 0.8 1.3 0.9 0.5 0.5 0.2 0.2 0.3 0.9 0.4 0.3 0.6 2.0 3.1 3.3 3.1 3.9 4.4 5.4 6.0 6.0 6.6 6.5 6.5 6.2
9.0 7.0 4.6 6.4 5.7 6.1 6.9 7.2 6.5 7.2 7.4 6.0 5.0 3.5 2.6 2.3 1.8 1.3 0.7 0.3 0.6 1.0 0.7 0.6 0.7 0.2 1.0 0.6 0.9 1.9 1.4 1.3 1.9 3.3 3.7 4.3 5.1 5.9 5.5 7.4 7.7 7.0 7.2 6.3
7.8 8.1 9.8 11.7 12.4 10.5 9.9 10.8 9.6 9.3 9.0 7.3 5.7 4.0 3.6 3.0 3.5 1.4 1.3 0.7 0.4 0.3 0.5 0.5 1.0 1.8 0.5 0.6 3.6 2.1 1.5 2.2 2.8 4.3 4.0 4.5 6.0 5.6 6.0 7.0 7.1 8.4 7.8 6.7
9.7 10.6 10.1 10.2 10.6 10.7 11.1 11.4 9.8 8.3 7.2 5.8 6.6 6.1 5.0 4.0 3.2 2.4 1.7 1.0 0.5 0.4 0.4 0.6 1.4 0.8 0.4 0.8 1.9 1.6 4.0 4.9 4.9 5.8 4.8 4.9 5.6 4.7 5.4 7.0 8.1 8.3 7.7 8.4
10.9 9.2 8.7 9.2 9.2 8.1 8.8 6.5 5.7 5.5 5.5 4.6 4.2 3.4 3.4 2.3 1.7 1.1 1.1 1.3 1.4 2.0 3.2 1.8 0.6 0.7 1.4 1.4 1.4 3.1 5.3 6.7 8.0 6.9 6.0 6.5 6.6 7.0 6.8 8.1 9.2 9.6 8.7 9.4
12.7 11.6 9.9 8.4 7.5 6.8 6.6 7.0 6.3 5.7 5.1 4.5 4.3 3.5 3.1 2.5 1.8 1.3 1.4 0.7 0.3 1.5 0.9 0.4 0.6 2.9 3.3 3.2 3.8 4.4 6.1 9.0 10.8 10.7 9.8 9.1 8.4 6.9 6.5 7.7 9.5 9.5 10.4 10.4
9.4 9.4 9.9 7.2 5.3 4.8 5.7 5.5 5.0 4.7 3.8 3.1 2.6 2.0 1.2 0.9 0.9 0.9 1.2 3.4 1.7 1.8 1.9 0.7 1.8 4.1 4.1 5.7 7.8 7.4 9.6 10.0 12.9 13.2 11.8 9.6 9.3 9.3 8.8 9.0 11.5 12.1 11.8 10.8
10.4 10.7 9.1 9.5 10.9 10.5 7.2 6.0 5.3 4.8 3.9 4.2 4.1 3.7 4.4 4.1 4.1 5.9 6.3 4.2 4.5 4.0 2.5 3.9 5.5 5.0 5.9 9.0 8.7 10.1 11.8 12.0 12.7 13.9 14.4 14.9 13.0 12.5 12.9 12.5 12.6 12.8 12.8 13.1
8.4 9.7 11.2 11.5 11.0 9.4 10.0 11.7 10.2 9.7 8.8 7.6 8.7 8.2 8.0 8.8 7.4 7.8 8.8 7.7 6.9 7.2 8.4 9.7 8.5 7.0 6.8 9.4 10.9 12.0 13.2 14.1 16.5 17.5 17.1 13.7 14.1 13.6 13.1 12.2 13.9 12.4 12.3 12.6
8.2 8.2 7.7 7.6 7.8 10.0 9.7 9.5 7.1 8.5 9.0 8.0 8.4 9.8 10.3 10.6 14.8 14.8 11.0 11.4 9.6 9.7 9.8 8.5 7.8 7.7 8.9 11.1 13.8 14.6 16.4 18.6 20.8 22.7 21.5 19.8 18.5 17.8 16.9 15.9 16.4 16.7 17.5 16.1
6.5 7.7 8.4 7.7 9.3 8.4 8.8 6.1 7.4 8.7 7.7 6.9 7.2 8.6 9.3 10.0 10.8 10.0 10.2 11.8 11.7 10.7 10.0 10.4 12.7 11.4 11.8 14.4 14.8 15.5 17.6 19.7 20.1 23.0 23.6 23.6 22.7 20.8 19.9 18.8 18.0 18.6 18.9 19.2
4.4 5.1 4.9 4.3 4.7 5.7 6.6 6.8 6.0 7.6 7.5 8.0 7.9 8.7 8.2 7.9 7.7 8.5 7.9 8.6 9.0 9.8 9.6 10.3 11.1 12.3 13.4 15.5 14.9 15.9 16.6 19.9 21.2 24.5 24.6 24.9 23.4 23.1 22.9 22.2 21.0 20.7 20.5 20.3